Location: Newark
(48.4472°N, 1.4892°E)
Time: 07:18:17
(UTC+00:00)

Transit 4A - Pass Details

Date: 01 December 2019
Orbit: 870 x 974 km, 66.8° (Epoch: 15 December)

Event Time Altitude Azimuth Distance (km) Brightness Sun altitude
Rises 18:45:04 0° 200° (SSW) 3,620 11.3 -26.3°
Reaches altitude 10° 18:47:39 10° 197° (SSW) 2,665 10.5 -26.7°
Enters shadow 18:52:46 54° 158° (SSE) 1,128 8.1 -27.6°
